Regional Weather Roundup
Issued by NWS

Home | Current Version | Previous Version | Text Only | Print | Product List | Glossary Off
Versions: 1 2 3 4 5 6 7 8 9 10 11 12 13 14 15 16 17 18 19 20 21 22 23 24 25 26 27 28 29 30 31 32 33 34 35 36 37 38 39 40 41 42 43 44 45 46 47 48 49 50

785
ASUS43 KLSX 200457
RWRMO

WEATHER SUMMARY FOR MISSOURI
NATIONAL WEATHER SERVICE SPRINGFIELD MO
1100 PM CST MON FEB 19 2018

NOTE: "FAIR" INDICATES FEW OR NO CLOUDS BELOW 12,000 FEET WITH NO
       SIGNIFICANT WEATHER AND/OR OBSTRUCTIONS TO VISIBILITY.
       CURRENT SKY AND/OR WEATHER CONDITIONS ARE NOT AVAILABLE FOR
       CHILLICOTHE AND FARMINGTON.

MOZ001>031-035>038-043-044-053-054-200600-
...NORTHERN AND WESTERN MISSOURI...

CITY           SKY/WX    TMP DP  RH WIND       PRES   REMARKS
KANSAS CTY INT FRZ DRZL  29  28  96 N6        29.81F FOG     WCI  23
LEE`S SUMMIT   CLOUDY    32  32 100 N8        29.82S FOG     WCI  25
ST JOSEPH      CLOUDY    28  28 100 N9        29.84S FOG     WCI  19
CHILLICOTHE      N/A     35  32  88 CALM      29.84S

$$
MOZ066>068-077>081-088>096-101>105-200600-
...SOUTHWEST MISSOURI...

CITY           SKY/WX    TMP DP  RH WIND       PRES   REMARKS
SPRINGFIELD    CLOUDY    65  57  75 S15       29.81S
JOPLIN         CLOUDY    63  62  97 S13       29.77F

$$
MOZ032>034-039>042-045>050-055>058-069>072-200600-
...CENTRAL MISSOURI...

CITY           SKY/WX    TMP DP  RH WIND       PRES   REMARKS
COLUMBIA       NOT AVBL
JEFFERSON CITY LGT RAIN  64  59  83 SE13      29.80F
ROLLA          CLOUDY    64  58  80 S18G24    29.86S
SEDALIA        HVY RAIN  40  40 100 N7        29.81F FOG
WARRENSBURG    TSTM      34  34 100 N3        29.81F

$$
MOZ051-052-059>065-200600-
...EAST CENTRAL MISSOURI...

CITY           SKY/WX    TMP DP  RH WIND       PRES   REMARKS
ST LOUIS INTL  LGT RAIN  66  60  81 S10       29.89R

$$
MOZ072>076-082>087-097>100-106>115-200600-
...SOUTH CENTRAL AND SOUTHEAST MISSOURI...

CITY           SKY/WX    TMP DP  RH WIND       PRES   REMARKS
CAPE GIRARDEAU FAIR      64  57  78 S14       29.98F
POPLAR BLUFF   FAIR      65  57  75 S12G21    29.96F
WEST PLAINS    PTCLDY    65  57  75 S13G23    29.91F

$$



USA.gov is the U.S. government's official web portal to all federal, state and local government web resources and services.